LEMUR-2-DAISY-HARPER (43889 NORAD) Tracking and Keplerian Element Data

This shows tracking and keplerian element data for the satellite.

Feedback or suggestion? Click here.




ElementValue
Catalog43889
NameLEMUR-2-DAISY-HARPER
Epoch Orbit369
Epoch Day20.94898717
Epoch Year2019
RAAN291.084
Inclination97.7296
Eccentricity0.0012121
Argument of Perigee151.7868
Mean Anonmoly208.4013
Mean Motion14.96742757
Decay Rate7.94E-06
L11 43889U 18111P 19020.94898717 .00000794 00000-0 74484-4 0 9990
L22 43889 97.7296 291.0840 0012121 151.7868 208.4013 14.96742757 3699

Live tracking and technical data element details for LEMUR-2-DAISY-HARPER (NORAD 43889). LEMUR-2-DAISY-HARPER can be tracked NOW for your location showing map with azimuth and elevation plus other details from your city location.

Track the satellite on the map from your city or location and see movement details for azimuth, elevation, latitude, longitude, range, height, and movement on the map or in text.







IsCatalogInMostPopularTable: catalog: 43889, numindb: 22
Update: records affected: 1



GetName: 43889 LEMUR-2-DAISY-HARPER

Hit Count: updated at: Wed, 23 Jan 2019 02:59:41 GMT